BRX081 KLAX-EHAM

Flight info

Callsign BRX081
Flight time N/A
Altitude 33000
Route ORCKA5 LAS Q70 BLIPP Q842 WINEN DCT OCS J202 DDY DCT TIMMR/N0489F350 DCT HML DCT 55N090W 60N080W DCT TEFFO DCT BERUS/M083F350 DCT EMBOK DCT 63N050W/M084F370 6230N04000W 61N030W 59N020W 58N015W DCT GOMUP/N0483F370 DCT GINGA DCT BRUCE DCT CLYDE DCT HAVEN DCT EWOKE DCT ANMAZ DCT BAZNA DCT ROKAN DCT TOPPA
Aircraft B77W/H-SDE1E2E3FGHIJ2J3J4J5M1RWXY/LB1D1

Departure

Time 2026-04-26 04:36
Airport Los Angeles International Airport (KLAX)

Arrival

Time N/A
Airport Amsterdam Airport Schiphol (EHAM)
Time Latitude Longitude Altitude Speed Heading
2026-04-26 03:17 33.94416 -118.41592 126 ft 0 kts 83°
2026-04-26 04:17 33.94415 -118.41600 126 ft 2 kts 83°
2026-04-26 04:17 33.94413 -118.41618 126 ft 2 kts 87°
2026-04-26 04:17 33.94414 -118.41636 125 ft 2 kts 104°
2026-04-26 04:18 33.94420 -118.41653 125 ft 2 kts 118°
2026-04-26 04:18 33.94427 -118.41669 125 ft 2 kts 131°
2026-04-26 04:18 33.94439 -118.41681 125 ft 2 kts 145°
2026-04-26 04:18 33.94452 -118.41690 125 ft 2 kts 159°
2026-04-26 04:19 33.94465 -118.41695 125 ft 1 kts 171°
2026-04-26 04:19 33.94470 -118.41696 125 ft 0 kts 174°
2026-04-26 04:21 33.94454 -118.41694 125 ft 4 kts 174°
2026-04-26 04:22 33.94408 -118.41688 124 ft 8 kts 179°
2026-04-26 04:22 33.94364 -118.41726 123 ft 8 kts 240°
2026-04-26 04:22 33.94320 -118.41766 123 ft 9 kts 189°
2026-04-26 04:22 33.94247 -118.41760 123 ft 12 kts 173°
2026-04-26 04:23 33.94159 -118.41747 123 ft 11 kts 173°
2026-04-26 04:23 33.94088 -118.41735 125 ft 9 kts 173°
2026-04-26 04:23 33.94026 -118.41726 125 ft 9 kts 173°
2026-04-26 04:23 33.93948 -118.41715 126 ft 12 kts 173°
2026-04-26 04:24 33.93856 -118.41701 128 ft 14 kts 173°
2026-04-26 04:24 33.93760 -118.41687 129 ft 12 kts 171°
2026-04-26 04:24 33.93717 -118.41615 131 ft 12 kts 91°
2026-04-26 04:24 33.93725 -118.41512 132 ft 13 kts 83°
2026-04-26 04:25 33.93737 -118.41388 132 ft 15 kts 83°
2026-04-26 04:25 33.93750 -118.41267 133 ft 13 kts 83°
2026-04-26 04:25 33.93761 -118.41155 133 ft 13 kts 83°
2026-04-26 04:25 33.93774 -118.41039 133 ft 14 kts 83°
2026-04-26 04:26 33.93785 -118.40917 133 ft 14 kts 83°
2026-04-26 04:26 33.93798 -118.40792 133 ft 15 kts 83°
2026-04-26 04:26 33.93812 -118.40661 133 ft 15 kts 83°
2026-04-26 04:26 33.93826 -118.40519 130 ft 17 kts 84°
2026-04-26 04:27 33.93842 -118.40362 127 ft 19 kts 83°
2026-04-26 04:27 33.93859 -118.40202 126 ft 18 kts 83°
2026-04-26 04:27 33.93874 -118.40057 124 ft 17 kts 83°
2026-04-26 04:27 33.93888 -118.39915 121 ft 16 kts 83°
2026-04-26 04:28 33.93903 -118.39774 119 ft 16 kts 83°
2026-04-26 04:28 33.93917 -118.39635 117 ft 16 kts 83°
2026-04-26 04:28 33.93930 -118.39509 116 ft 14 kts 83°
2026-04-26 04:28 33.93943 -118.39384 114 ft 16 kts 83°
2026-04-26 04:29 33.93957 -118.39241 113 ft 16 kts 83°
2026-04-26 04:29 33.93971 -118.39108 112 ft 15 kts 84°
2026-04-26 04:29 33.93983 -118.38982 110 ft 12 kts 83°
2026-04-26 04:29 33.93993 -118.38883 110 ft 11 kts 83°
2026-04-26 04:30 33.94002 -118.38793 110 ft 9 kts 83°
2026-04-26 04:30 33.94011 -118.38715 110 ft 8 kts 83°
2026-04-26 04:30 33.94017 -118.38648 110 ft 7 kts 83°
2026-04-26 04:30 33.94023 -118.38593 110 ft 6 kts 83°
2026-04-26 04:31 33.94030 -118.38528 110 ft 9 kts 83°
2026-04-26 04:31 33.94041 -118.38419 108 ft 16 kts 83°
2026-04-26 04:31 33.94055 -118.38278 107 ft 16 kts 83°
2026-04-26 04:31 33.94067 -118.38167 107 ft 8 kts 83°
2026-04-26 04:32 33.94072 -118.38117 107 ft 1 kts 82°
2026-04-26 04:34 33.94073 -118.38116 107 ft 1 kts 82°
2026-04-26 04:34 33.94077 -118.38063 107 ft 8 kts 95°
2026-04-26 04:34 33.94030 -118.38012 107 ft 10 kts 173°
2026-04-26 04:35 33.93980 -118.38073 107 ft 11 kts 259°
2026-04-26 04:35 33.93976 -118.38107 107 ft 13 kts 262°
2026-04-26 04:35 33.93930 -118.38551 110 ft 95 kts 263°
2026-04-26 04:35 33.93816 -118.39662 126 ft 168 kts 262°
2026-04-26 04:36 33.93655 -118.41164 735 ft 189 kts 262°
2026-04-26 04:36 33.93498 -118.42677 1880 ft 176 kts 263°
2026-04-26 04:36 33.93356 -118.44076 2632 ft 166 kts 263°
2026-04-26 04:36 33.93140 -118.45514 2936 ft 184 kts 252°
2026-04-26 04:37 33.92489 -118.46974 3128 ft 208 kts 233°
2026-04-26 04:37 33.91550 -118.48356 3547 ft 222 kts 233°
2026-04-26 04:37 33.90513 -118.49891 4015 ft 239 kts 232°
2026-04-26 04:37 33.89411 -118.51447 4593 ft 251 kts 232°
2026-04-26 04:38 33.88273 -118.53059 5402 ft 254 kts 232°
2026-04-26 04:38 33.87079 -118.54643 6239 ft 257 kts 222°
2026-04-26 04:38 33.85485 -118.55680 6955 ft 267 kts 199°
2026-04-26 04:38 33.83615 -118.55822 7694 ft 277 kts 176°
2026-04-26 04:39 33.81720 -118.55365 8514 ft 279 kts 172°
2026-04-26 04:39 33.79785 -118.54818 9245 ft 284 kts 172°
2026-04-26 04:39 33.77857 -118.54284 9961 ft 287 kts 172°
2026-04-26 04:39 33.75878 -118.53726 10489 ft 299 kts 169°
2026-04-26 04:40 33.73846 -118.52840 10842 ft 320 kts 160°
2026-04-26 04:40 33.71847 -118.51489 11178 ft 342 kts 150°
2026-04-26 04:40 33.69970 -118.49629 11567 ft 362 kts 139°
2026-04-26 04:40 33.68303 -118.47220 11928 ft 384 kts 127°
2026-04-26 04:41 33.67018 -118.44340 12315 ft 405 kts 114°
2026-04-26 04:41 33.66119 -118.41118 13012 ft 412 kts 110°
2026-04-26 04:41 33.65250 -118.37830 13776 ft 417 kts 110°
2026-04-26 04:41 33.64563 -118.34407 14463 ft 426 kts 100°
2026-04-26 04:42 33.64377 -118.30872 15231 ft 431 kts 92°
2026-04-26 04:42 33.64407 -118.27271 15899 ft 437 kts 88°
2026-04-26 04:42 33.64824 -118.23631 16524 ft 445 kts 77°
2026-04-26 04:42 33.65754 -118.20057 16929 ft 454 kts 67°
2026-04-26 04:43 33.67173 -118.16650 16966 ft 454 kts 57°
2026-04-26 04:43 33.69017 -118.13628 16971 ft 451 kts 46°
2026-04-26 04:43 33.71267 -118.11008 16968 ft 447 kts 36°
2026-04-26 04:43 33.73795 -118.08829 16973 ft 445 kts 30°
2026-04-26 04:44 33.76372 -118.06727 16972 ft 444 kts 31°
2026-04-26 04:44 33.78923 -118.04599 16968 ft 443 kts 31°
2026-04-26 04:44 33.81442 -118.02454 16970 ft 443 kts 32°
2026-04-26 04:44 33.83945 -118.00290 16972 ft 443 kts 32°
2026-04-26 04:45 33.86431 -117.98113 16975 ft 444 kts 32°
2026-04-26 04:45 33.88965 -117.95875 17061 ft 454 kts 32°
2026-04-26 04:45 33.91484 -117.93633 17882 ft 455 kts 33°
2026-04-26 04:45 33.94007 -117.91351 18898 ft 451 kts 33°
2026-04-26 04:46 33.96526 -117.89063 19534 ft 458 kts 33°
2026-04-26 04:46 33.99128 -117.86695 20000 ft 468 kts 33°
2026-04-26 04:46 34.01740 -117.84312 20597 ft 474 kts 34°
2026-04-26 04:46 34.04386 -117.81893 21257 ft 478 kts 34°
2026-04-26 04:47 34.07066 -117.79435 21872 ft 483 kts 35°
2026-04-26 04:47 34.09551 -117.76720 22372 ft 492 kts 45°
2026-04-26 04:47 34.11677 -117.73740 22875 ft 498 kts 49°
2026-04-26 04:47 34.13891 -117.70458 23413 ft 503 kts 50°
2026-04-26 04:48 34.18341 -117.63831 24479 ft 512 kts 50°
2026-04-26 04:48 34.20609 -117.60453 25000 ft 516 kts 50°
2026-04-26 04:48 34.22882 -117.57067 25451 ft 521 kts 50°
2026-04-26 04:49 34.25160 -117.53671 25899 ft 526 kts 49°
2026-04-26 04:49 34.27475 -117.50217 26345 ft 531 kts 50°
2026-04-26 04:49 34.29821 -117.46716 26824 ft 535 kts 50°
2026-04-26 04:49 34.32175 -117.43197 27314 ft 538 kts 50°
2026-04-26 04:50 34.34564 -117.39625 27727 ft 543 kts 50°
2026-04-26 04:50 34.36941 -117.36067 28176 ft 547 kts 50°
2026-04-26 04:50 34.39259 -117.32594 28580 ft 551 kts 50°
2026-04-26 04:50 34.41691 -117.28947 28944 ft 556 kts 50°
2026-04-26 04:51 34.44153 -117.25251 29368 ft 560 kts 50°
2026-04-26 04:51 34.46620 -117.21543 29969 ft 558 kts 51°
2026-04-26 04:51 34.49089 -117.17829 30661 ft 554 kts 50°
2026-04-26 04:51 34.51495 -117.14208 31237 ft 552 kts 51°
2026-04-26 04:52 34.53894 -117.10590 31727 ft 551 kts 50°
2026-04-26 04:52 34.56330 -117.06976 32183 ft 551 kts 49°
2026-04-26 04:52 34.58802 -117.03385 32620 ft 551 kts 49°
2026-04-26 04:52 34.61259 -116.99818 32859 ft 554 kts 49°
2026-04-26 04:53 34.66214 -116.92606 32880 ft 550 kts 49°
2026-04-26 04:53 34.71185 -116.85348 32895 ft 554 kts 50°
2026-04-26 04:54 34.76098 -116.78155 32869 ft 549 kts 50°
2026-04-26 04:54 34.80986 -116.70983 32895 ft 554 kts 50°
2026-04-26 04:55 34.85901 -116.63756 32875 ft 549 kts 49°
2026-04-26 04:55 34.90996 -116.56889 32871 ft 548 kts 46°
2026-04-26 04:56 34.96201 -116.49985 32858 ft 550 kts 47°
2026-04-26 04:56 35.01379 -116.43081 32844 ft 548 kts 47°
2026-04-26 04:57 35.06551 -116.36156 32834 ft 552 kts 47°
2026-04-26 04:57 35.11547 -116.29445 32794 ft 549 kts 48°
2026-04-26 04:58 35.16585 -116.22660 32796 ft 550 kts 48°
2026-04-26 04:58 35.21735 -116.15706 32795 ft 548 kts 47°
2026-04-26 04:59 35.26861 -116.08770 32789 ft 550 kts 47°
2026-04-26 04:59 35.31970 -116.01842 32780 ft 547 kts 48°
2026-04-26 05:00 35.37126 -115.94834 32791 ft 548 kts 48°
2026-04-26 05:00 35.42251 -115.87856 32796 ft 549 kts 48°
2026-04-26 05:01 35.47337 -115.80914 32805 ft 547 kts 48°
2026-04-26 05:01 35.52469 -115.73897 32816 ft 548 kts 48°
2026-04-26 05:02 35.57564 -115.66915 32802 ft 545 kts 48°
2026-04-26 05:02 35.62638 -115.59948 32808 ft 545 kts 48°
2026-04-26 05:03 35.67686 -115.53001 32804 ft 547 kts 48°
2026-04-26 05:03 35.72780 -115.45978 32808 ft 544 kts 49°
2026-04-26 05:04 35.77834 -115.38993 32799 ft 548 kts 48°
2026-04-26 05:04 35.82897 -115.31982 32785 ft 543 kts 49°
2026-04-26 05:05 35.87964 -115.24948 32781 ft 545 kts 49°
2026-04-26 05:05 35.92979 -115.17973 32779 ft 544 kts 49°
2026-04-26 05:06 35.97988 -115.10994 32796 ft 544 kts 49°
2026-04-26 05:06 36.02987 -115.04013 32784 ft 542 kts 49°
2026-04-26 05:07 36.07990 -114.97012 32785 ft 543 kts 49°
2026-04-26 05:07 36.12809 -114.90254 32759 ft 541 kts 49°
2026-04-26 05:08 36.18051 -114.83501 32759 ft 542 kts 38°
2026-04-26 05:08 36.24377 -114.78513 32768 ft 539 kts 26°
2026-04-26 05:09 36.31001 -114.74139 32764 ft 537 kts 26°
2026-04-26 05:09 36.37604 -114.69772 32766 ft 538 kts 26°
2026-04-26 05:10 36.44194 -114.65399 32759 ft 536 kts 26°
2026-04-26 05:10 36.50793 -114.61008 32760 ft 537 kts 26°
2026-04-26 05:11 36.57423 -114.56586 32760 ft 535 kts 26°
2026-04-26 05:11 36.64014 -114.52180 32774 ft 537 kts 26°
2026-04-26 05:12 36.70644 -114.47738 32761 ft 532 kts 26°
2026-04-26 05:12 36.77036 -114.42958 32780 ft 536 kts 31°
2026-04-26 05:13 36.83287 -114.37987 32775 ft 532 kts 30°
2026-04-26 05:13 36.89625 -114.32966 32779 ft 533 kts 31°
2026-04-26 05:14 36.95916 -114.27991 32775 ft 533 kts 31°
2026-04-26 05:14 37.02149 -114.23062 32781 ft 531 kts 31°
2026-04-26 05:15 37.08424 -114.18096 32789 ft 534 kts 31°
2026-04-26 05:15 37.14753 -114.13081 32779 ft 532 kts 31°
2026-04-26 05:16 37.21016 -114.08109 32785 ft 532 kts 31°
2026-04-26 05:16 37.27245 -114.03156 32802 ft 532 kts 31°
2026-04-26 05:17 37.33540 -113.98141 32817 ft 530 kts 31°
2026-04-26 05:17 37.39826 -113.93124 32832 ft 531 kts 31°
2026-04-26 05:18 37.46140 -113.88073 32837 ft 528 kts 31°
2026-04-26 05:18 37.52409 -113.83050 32833 ft 530 kts 31°
2026-04-26 05:19 37.58698 -113.77998 32847 ft 530 kts 31°
2026-04-26 05:19 37.64891 -113.73016 32846 ft 528 kts 31°
2026-04-26 05:20 37.71140 -113.67977 32864 ft 530 kts 31°
2026-04-26 05:20 37.77365 -113.62948 32863 ft 528 kts 31°
2026-04-26 05:21 37.83517 -113.57967 32861 ft 528 kts 31°
2026-04-26 05:21 37.89725 -113.52932 32862 ft 527 kts 31°
2026-04-26 05:22 37.95599 -113.47402 32864 ft 527 kts 41°
2026-04-26 05:22 38.01106 -113.41148 32867 ft 527 kts 41°
2026-04-26 05:23 38.06551 -113.34930 32860 ft 527 kts 42°
2026-04-26 05:23 38.12025 -113.28664 32844 ft 526 kts 42°
2026-04-26 05:24 38.17503 -113.22382 32849 ft 528 kts 42°
2026-04-26 05:24 38.22932 -113.16143 32846 ft 529 kts 42°
2026-04-26 05:25 38.28421 -113.09821 32845 ft 528 kts 42°
2026-04-26 05:25 38.33863 -113.03540 32834 ft 527 kts 42°
2026-04-26 05:26 38.39278 -112.97278 32828 ft 527 kts 42°
2026-04-26 05:26 38.44744 -112.90942 32833 ft 528 kts 42°
2026-04-26 05:27 38.50203 -112.84602 32841 ft 528 kts 42°
2026-04-26 05:27 38.55601 -112.78320 32848 ft 529 kts 42°
2026-04-26 05:28 38.61069 -112.71941 32846 ft 528 kts 42°
2026-04-26 05:28 38.66581 -112.65498 32854 ft 529 kts 42°
2026-04-26 05:29 38.72080 -112.59056 32845 ft 529 kts 42°
2026-04-26 05:29 38.77561 -112.52621 32866 ft 529 kts 42°
2026-04-26 05:30 38.83017 -112.46201 32856 ft 529 kts 42°
2026-04-26 05:30 38.88461 -112.39782 32864 ft 529 kts 42°
2026-04-26 05:31 38.93969 -112.33273 32868 ft 528 kts 43°
2026-04-26 05:31 38.99374 -112.26871 32868 ft 529 kts 43°
2026-04-26 05:32 39.04801 -112.20428 32867 ft 529 kts 43°
2026-04-26 05:32 39.10180 -112.14030 32864 ft 529 kts 43°
2026-04-26 05:33 39.15655 -112.07502 32851 ft 529 kts 43°
2026-04-26 05:33 39.21019 -112.01093 32851 ft 529 kts 43°
2026-04-26 05:34 39.26421 -111.94625 32851 ft 529 kts 43°
2026-04-26 05:34 39.31835 -111.88128 32847 ft 531 kts 42°
2026-04-26 05:35 39.37294 -111.81562 32847 ft 532 kts 42°
2026-04-26 05:35 39.42753 -111.74982 32852 ft 533 kts 42°
2026-04-26 05:36 39.48241 -111.68351 32854 ft 533 kts 42°
2026-04-26 05:36 39.53701 -111.61739 32855 ft 534 kts 42°
2026-04-26 05:37 39.59151 -111.55126 32861 ft 532 kts 42°
2026-04-26 05:37 39.64642 -111.48446 32877 ft 534 kts 42°
2026-04-26 05:38 39.70116 -111.41773 32879 ft 533 kts 42°
2026-04-26 05:38 39.75548 -111.35135 32890 ft 535 kts 42°
2026-04-26 05:39 39.80982 -111.28481 32883 ft 534 kts 42°
2026-04-26 05:39 39.86418 -111.21808 32883 ft 534 kts 43°
2026-04-26 05:40 39.91816 -111.15166 32885 ft 534 kts 42°
2026-04-26 05:40 39.97239 -111.08478 32893 ft 535 kts 43°
2026-04-26 05:41 40.02705 -111.01722 32903 ft 535 kts 42°
2026-04-26 05:41 40.08162 -110.94961 32907 ft 534 kts 42°
2026-04-26 05:42 40.13570 -110.88245 32902 ft 534 kts 42°
2026-04-26 05:42 40.18997 -110.81491 32902 ft 535 kts 42°
2026-04-26 05:43 40.24387 -110.74768 32899 ft 536 kts 42°
2026-04-26 05:43 40.29751 -110.68060 32895 ft 535 kts 42°
2026-04-26 05:44 40.35171 -110.61267 32912 ft 534 kts 42°
2026-04-26 05:44 40.40622 -110.54420 32902 ft 537 kts 42°
2026-04-26 05:45 40.46065 -110.47566 32899 ft 536 kts 42°
2026-04-26 05:45 40.51479 -110.40733 32900 ft 537 kts 42°
2026-04-26 05:46 40.56909 -110.33862 32889 ft 536 kts 43°
2026-04-26 05:46 40.62270 -110.27064 32883 ft 537 kts 43°
2026-04-26 05:47 40.67667 -110.20204 32880 ft 537 kts 43°
2026-04-26 05:47 40.73048 -110.13348 32882 ft 538 kts 42°
2026-04-26 05:48 40.78429 -110.06474 32888 ft 538 kts 43°
2026-04-26 05:48 40.81111 -110.03044 32989 ft 544 kts 42°
2026-04-26 05:48 40.83848 -109.99538 33516 ft 542 kts 43°
2026-04-26 05:49 40.86517 -109.96112 34303 ft 535 kts 42°
2026-04-26 05:49 40.91851 -109.89259 34893 ft 535 kts 42°
2026-04-26 05:50 40.97187 -109.82388 34915 ft 534 kts 42°
2026-04-26 05:50 41.02503 -109.75525 34913 ft 534 kts 42°
2026-04-26 05:51 41.07847 -109.68610 34910 ft 533 kts 42°
2026-04-26 05:51 41.13256 -109.61594 34900 ft 536 kts 42°
2026-04-26 05:52 41.18568 -109.54687 34898 ft 535 kts 42°
2026-04-26 05:52 41.23869 -109.47777 34910 ft 535 kts 41°
2026-04-26 05:53 41.29214 -109.40792 34897 ft 536 kts 41°
2026-04-26 05:53 41.34526 -109.33836 34901 ft 537 kts 42°
2026-04-26 05:54 41.39857 -109.26836 34892 ft 537 kts 42°
2026-04-26 05:54 41.45189 -109.19818 34895 ft 539 kts 42°
2026-04-26 05:55 41.50496 -109.12817 34886 ft 537 kts 42°
2026-04-26 05:55 41.55833 -109.05758 34861 ft 539 kts 42°
2026-04-26 05:56 41.60810 -108.98277 34864 ft 540 kts 50°
2026-04-26 05:56 41.65389 -108.90339 34883 ft 542 kts 51°
2026-04-26 05:57 41.69980 -108.82319 34888 ft 541 kts 51°
2026-04-26 05:57 41.74578 -108.74253 34884 ft 542 kts 51°
2026-04-26 05:58 41.79198 -108.66119 34879 ft 541 kts 50°
2026-04-26 05:58 41.83799 -108.57994 34874 ft 542 kts 50°
2026-04-26 05:59 41.88396 -108.49851 34876 ft 542 kts 50°
2026-04-26 05:59 41.92989 -108.41693 34870 ft 543 kts 51°
2026-04-26 06:00 41.97627 -108.33431 34861 ft 543 kts 51°
2026-04-26 06:00 42.02147 -108.25356 34853 ft 543 kts 51°
2026-04-26 06:01 42.06700 -108.17201 34849 ft 545 kts 51°
2026-04-26 06:01 42.11271 -108.08991 34842 ft 543 kts 51°
2026-04-26 06:02 42.15826 -108.00789 34841 ft 545 kts 51°
2026-04-26 06:02 42.20364 -107.92594 34849 ft 545 kts 51°
2026-04-26 06:03 42.24905 -107.84373 34866 ft 548 kts 51°
2026-04-26 06:03 42.29438 -107.76141 34868 ft 547 kts 50°
2026-04-26 06:04 42.34020 -107.67799 34874 ft 547 kts 50°
2026-04-26 06:04 42.38590 -107.59454 34867 ft 548 kts 51°
2026-04-26 06:05 42.43190 -107.51032 34868 ft 546 kts 50°
2026-04-26 06:05 42.47772 -107.42619 34872 ft 548 kts 50°
2026-04-26 06:06 42.52282 -107.34314 34874 ft 548 kts 51°
2026-04-26 06:06 42.56719 -107.26123 34859 ft 547 kts 51°
2026-04-26 06:07 42.61217 -107.17796 34861 ft 547 kts 51°
2026-04-26 06:07 42.65708 -107.09457 34858 ft 546 kts 51°
2026-04-26 06:08 42.70185 -107.01123 34858 ft 546 kts 50°
2026-04-26 06:08 42.74649 -106.92790 34856 ft 545 kts 50°
2026-04-26 06:09 42.79095 -106.84465 34861 ft 547 kts 50°
2026-04-26 06:09 42.83571 -106.76061 34880 ft 546 kts 51°
2026-04-26 06:10 42.88013 -106.67699 34891 ft 548 kts 50°
2026-04-26 06:10 42.92471 -106.59282 34901 ft 546 kts 50°
2026-04-26 06:11 42.96924 -106.50851 34913 ft 547 kts 50°
2026-04-26 06:11 43.01367 -106.42415 34917 ft 545 kts 50°
2026-04-26 06:12 43.05786 -106.34000 34916 ft 545 kts 51°
2026-04-26 06:12 43.10379 -106.25690 34900 ft 543 kts 44°
2026-04-26 06:13 43.15501 -106.18056 34898 ft 542 kts 43°
2026-04-26 06:13 43.20612 -106.10461 34892 ft 542 kts 43°
2026-04-26 06:14 43.25729 -106.02821 34893 ft 542 kts 43°
2026-04-26 06:14 43.30848 -105.95146 34908 ft 544 kts 43°
2026-04-26 06:15 43.35960 -105.87457 34910 ft 545 kts 43°
2026-04-26 06:15 43.41043 -105.79784 34921 ft 542 kts 43°
2026-04-26 06:16 43.46144 -105.72063 34920 ft 544 kts 42°
2026-04-26 06:16 43.51226 -105.64349 34932 ft 542 kts 43°
2026-04-26 06:17 43.56315 -105.56606 34939 ft 543 kts 43°
2026-04-26 06:17 43.61405 -105.48838 34945 ft 546 kts 42°
2026-04-26 06:18 43.66481 -105.41068 34950 ft 543 kts 43°
2026-04-26 06:18 43.71567 -105.33265 34942 ft 547 kts 43°
2026-04-26 06:19 43.76635 -105.25465 34941 ft 549 kts 43°
2026-04-26 06:19 43.81706 -105.17638 34944 ft 544 kts 43°
2026-04-26 06:20 43.86803 -105.09753 34950 ft 548 kts 43°
2026-04-26 06:20 43.91850 -105.01920 34953 ft 545 kts 43°
2026-04-26 06:21 43.96961 -104.93971 34957 ft 549 kts 43°
2026-04-26 06:21 44.02067 -104.86000 34964 ft 546 kts 42°
2026-04-26 06:22 44.07158 -104.78036 34973 ft 548 kts 43°
2026-04-26 06:22 44.12268 -104.70019 34962 ft 550 kts 43°
2026-04-26 06:23 44.17296 -104.62108 34962 ft 550 kts 43°
2026-04-26 06:23 44.22334 -104.54154 35001 ft 547 kts 43°
2026-04-26 06:24 44.27387 -104.46159 34993 ft 546 kts 43°
2026-04-26 06:24 44.32408 -104.38193 34976 ft 549 kts 43°
2026-04-26 06:25 44.37465 -104.30145 34987 ft 547 kts 43°
2026-04-26 06:25 44.42483 -104.22137 34971 ft 548 kts 44°